TimeEST,TemperatureF,Dew PointF,Humidity,Sea Level PressureIn,VisibilityMPH,Wind Direction,Wind SpeedMPH,Gust SpeedMPH,PrecipitationIn,Events,Conditions,WindDirDegrees,DateUTC
12:53 AM,44.1,37.9,79,29.96,10.0,SE,3.5,-,N/A,,Clear,130,2012-12-20 05:53:00
1:53 AM,46.0,39.0,76,29.93,10.0,SE,3.5,-,N/A,,Clear,140,2012-12-20 06:53:00
2:53 AM,43.0,37.9,82,29.92,10.0,Calm,Calm,-,N/A,,Clear,0,2012-12-20 07:53:00
3:53 AM,43.0,37.9,82,29.89,10.0,Calm,Calm,-,N/A,,Clear,0,2012-12-20 08:53:00
4:53 AM,48.0,39.0,71,29.80,10.0,SE,3.5,-,N/A,,Clear,140,2012-12-20 09:53:00
5:53 AM,50.0,39.0,66,29.71,10.0,SE,8.1,-,N/A,,Clear,130,2012-12-20 10:53:00
7:53 AM,51.1,43.0,74,29.71,10.0,South,8.1,-,0.04,Rain,Light Rain,180,2012-12-20 12:53:00
8:53 AM,48.9,45.0,86,29.73,7.0,SSW,8.1,-,0.15,Rain,Rain,200,2012-12-20 13:53:00
9:53 AM,48.9,44.1,83,29.68,10.0,South,16.1,31.1,0.05,,Overcast,170,2012-12-20 14:53:00
10:53 AM,50.0,43.0,77,29.64,10.0,South,12.7,24.2,0.01,,Overcast,170,2012-12-20 15:53:00
11:53 AM,48.9,44.1,83,29.58,6.0,SSE,8.1,18.4,0.05,Rain,Rain,160,2012-12-20 16:53:00
12:53 PM,48.0,45.0,89,29.57,3.0,South,6.9,-,0.16,Rain,Rain,170,2012-12-20 17:53:00
1:44 PM,48.2,46.4,93,29.52,3.0,South,5.8,-,0.11,Rain,Rain,170,2012-12-20 18:44:00
1:53 PM,46.9,46.0,97,29.52,4.0,South,4.6,-,0.13,Rain,Rain,180,2012-12-20 18:53:00
2:02 PM,46.4,46.4,100,29.51,3.0,South,4.6,-,0.02,Rain,Rain,170,2012-12-20 19:02:00
2:27 PM,48.2,46.4,93,29.49,2.5,South,6.9,-,0.10,Rain,Rain,180,2012-12-20 19:27:00
2:53 PM,48.0,46.0,93,29.48,8.0,South,5.8,-,0.16,Rain,Light Rain,190,2012-12-20 19:53:00
3:04 PM,48.2,46.4,93,29.49,10.0,SSW,8.1,-,0.00,Rain,Light Rain,200,2012-12-20 20:04:00
3:29 PM,48.2,46.4,93,29.49,7.0,SW,6.9,-,0.00,Rain,Light Rain,230,2012-12-20 20:29:00
3:37 PM,48.2,46.4,93,29.49,10.0,WSW,10.4,-,0.01,Rain,Light Rain,240,2012-12-20 20:37:00
3:53 PM,48.9,46.0,90,29.48,10.0,South,10.4,-,0.01,Rain,Light Rain,190,2012-12-20 20:53:00
4:09 PM,48.2,46.4,93,29.47,10.0,South,9.2,-,0.00,,Overcast,190,2012-12-20 21:09:00
4:36 PM,48.2,46.4,93,29.47,3.0,South,8.1,-,0.03,Rain,Light Rain,170,2012-12-20 21:36:00
4:53 PM,48.9,46.0,90,29.47,6.0,SW,8.1,-,0.04,Rain,Light Rain,220,2012-12-20 21:53:00
5:01 PM,48.2,44.6,87,29.51,2.5,WSW,26.5,32.2,0.04,Rain,Rain,250,2012-12-20 22:01:00
5:08 PM,46.4,42.8,87,29.52,3.0,West,23.0,32.2,0.05,Rain,Light Rain,260,2012-12-20 22:08:00
5:12 PM,46.4,42.8,87,29.52,8.0,West,20.7,32.2,0.05,Rain,Light Rain,260,2012-12-20 22:12:00
5:19 PM,46.4,41.0,81,29.52,10.0,West,16.1,33.4,0.05,Rain,Light Rain,260,2012-12-20 22:19:00
5:53 PM,46.0,37.9,73,29.56,10.0,WSW,21.9,32.2,0.05,,Overcast,250,2012-12-20 22:53:00
6:53 PM,41.0,30.0,65,29.63,10.0,West,26.5,38.0,N/A,,Overcast,260,2012-12-20 23:53:00
7:53 PM,37.9,30.0,73,29.66,10.0,WSW,21.9,34.5,0.00,Rain,Light Rain,250,2012-12-21 00:53:00
8:39 PM,35.6,30.2,81,29.69,10.0,West,15.0,23.0,0.00,Rain,Light Rain,280,2012-12-21 01:39:00
8:46 PM,35.6,30.2,81,29.69,10.0,West,16.1,27.6,0.01,Rain,Light Rain,260,2012-12-21 01:46:00
8:53 PM,36.0,28.9,76,29.70,10.0,WSW,20.7,32.2,0.01,,Overcast,250,2012-12-21 01:53:00
9:53 PM,36.0,27.0,70,29.71,10.0,WSW,24.2,32.2,0.00,,Overcast,250,2012-12-21 02:53:00
10:27 PM,35.6,26.6,70,29.71,10.0,West,18.4,38.0,0.00,,Overcast,260,2012-12-21 03:27:00
10:35 PM,35.6,26.6,70,29.71,10.0,WSW,24.2,38.0,0.00,Rain,Light Rain,250,2012-12-21 03:35:00
10:53 PM,35.1,27.0,72,29.72,10.0,West,19.6,27.6,0.00,,Overcast,260,2012-12-21 03:53:00
11:00 PM,33.8,28.4,81,29.71,9.0,West,16.1,27.6,0.00,Snow,Light Snow,260,2012-12-21 04:00:00
11:53 PM,34.0,27.0,75,29.73,9.0,West,17.3,25.3,0.00,Snow,Light Snow,260,2012-12-21 04:53:00